LZ3VG Weather Reports


time (UTC)temp
C
wind
direction
speed
KPH
gust
KPH
rain 1hr
cm
rain 24hr
cm
rain mn
cm
humidity
%
barometer
mb
20260507151019 14 41 8.0 17.7 0.00 0.00 0.00 88 1017.1
20260507150026 15 38 6.4 12.9 0.00 0.00 0.00 86 1017.0
20260507145018 15 54 4.8 9.7 0.00 0.00 0.00 86 1017.2
20260507144025 15 51 6.4 16.1 0.00 0.00 0.00 86 1017.1
20260507143017 15 62 6.4 16.1 0.00 0.00 0.00 85 1017.1
20260507142041 15 18 6.4 14.5 0.00 0.00 0.00 85 1017.2
20260507141033 15 57 4.8 12.9 0.00 0.00 0.00 85 1017.2
20260507140026 15 39 6.4 14.5 0.00 0.00 0.00 84 1017.2
20260507135110 15 54 6.4 20.9 0.00 0.00 0.00 86 1017.2
20260507134026 15 36 8.0 24.1 0.00 0.00 0.00 86 1017.2
20260507133037 15 61 8.0 22.5 0.00 0.00 0.00 86 1017.1
20260507132026 15 52 6.4 12.9 0.00 0.00 0.00 86 1017.2
20260507131018 15 40 8.0 25.7 0.00 0.00 0.00 85 1017.3
20260507130041 15 61 6.4 14.5 0.00 0.00 0.00 85 1017.4
20260507125034 15 74 8.0 22.5 0.00 0.00 0.00 84 1017.3
20260507124025 15 85 6.4 14.5 0.00 0.00 0.00 84 1017.5
20260507123017 15 63 4.8 12.9 0.00 0.00 0.00 86 1017.6
20260507122041 14 54 12.9 32.2 0.00 0.00 0.00 87 1017.8
20260507121034 15 69 11.3 29.0 0.00 0.00 0.00 85 1017.8
20260507120026 14 47 6.4 14.5 0.00 0.00 0.00 87 1017.9
20260507115018 14 52 8.0 22.5 0.00 0.00 0.00 86 1018.0
20260507114102 14 36 9.7 17.7 0.00 0.00 0.00 87 1017.9
20260507113034 14 31 8.0 17.7 0.00 0.00 0.00 86 1017.9
20260507112043 15 50 6.4 22.5 0.00 0.00 0.00 85 1018.0
20260507111054 14 54 11.3 22.5 0.00 0.00 0.00 86 1018.0
20260507110042 15 72 9.7 20.9 0.00 0.00 0.00 84 1018.0
20260507105034 15 43 4.8 14.5 0.00 0.00 0.00 82 1018.0
20260507104026 15 39 4.8 14.5 0.00 0.00 0.00 81 1018.0
20260507103018 15 55 4.8 14.5 0.00 0.00 0.00 82 1018.1
20260507102026 15 69 4.8 14.5 0.00 0.00 0.00 81 1018.2
20260507101019 15 60 4.8 16.1 0.00 0.00 0.00 81 1018.2
20260507100026 15 79 4.8 12.9 0.00 0.00 0.00 80 1018.1
20260507095018 15 67 4.8 9.7 0.00 0.00 0.00 81 1018.1
20260507094042 15 34 3.2 11.3 0.00 0.00 0.00 80 1018.2
20260507093052 15 34 3.2 4.8 0.00 0.00 0.00 81 1018.2
20260507092026 15 48 4.8 12.9 0.00 0.00 0.00 82 1018.3
20260507091038 15 61 4.8 14.5 0.00 0.00 0.00 83 1018.3
20260507090042 14 61 3.2 9.7 0.00 0.00 0.00 84 1018.4
20260507085020 14 53 4.8 14.5 0.00 0.00 0.00 85 1018.3
20260507084043 13 58 4.8 14.5 0.00 0.00 0.00 85 1018.3
20260507083034 13 54 4.8 12.9 0.00 0.00 0.00 87 1018.3
20260507082029 14 71 4.8 16.1 0.00 0.00 0.00 84 1018.3
20260507081018 13 67 4.8 11.3 0.00 0.00 0.00 84 1018.3
20260507080042 13 75 4.8 12.9 0.00 0.00 0.00 86 1018.3
20260507075034 13 75 6.4 11.3 0.00 0.00 0.00 82 1018.4
20260507074027 13 70 3.2 9.7 0.00 0.00 0.00 84 1018.5
20260507073018 14 80 4.8 9.7 0.00 0.00 0.00 81 1018.4
20260507072033 13 124 1.6 4.8 0.00 0.00 0.00 81 1018.4
20260507071034 13 180 3.2 8.0 0.00 0.00 0.00 82 1018.5
20260507070026 13 119 3.2 9.7 0.00 0.00 0.00 84 1018.6
20260507065018 12 73 3.2 8.0 0.00 0.00 0.00 89 1018.3
20260507064042 11 66 1.6 4.8 0.00 0.00 0.00 95 1018.4
20260507063034 11 57 0.0 3.2 0.00 0.00 0.00 99 1018.4
20260507062026 10 8 1.6 3.2 0.00 0.00 0.00 99 1018.5
20260507061018 10 161 4.8 9.7 0.00 0.00 0.00 99 1018.5
20260507060043 9 130 3.2 9.7 0.00 0.00 0.00 99 1018.5
20260507055019 9 27 1.6 3.2 0.00 0.00 0.00 99 1018.5
20260507054026 9 7 0.0 1.6 0.00 0.00 0.00 99 1018.5
20260507053018 8 41 0.0 1.6 0.00 0.00 0.00 99 1018.4
20260507052042 8 309 1.6 3.2 0.00 0.00 0.00 99 1018.3
20260507051032 8 253 1.6 4.8 0.00 0.00 0.00 99 1018.4
20260507050026 8 248 1.6 3.2 0.00 0.00 0.00 99 1018.3
20260507045037 8 333 0.0 1.6 0.00 0.00 0.00 99 1018.1
20260507044026 8 240 1.6 3.2 0.00 0.00 0.00 99 1018.2
20260507043018 8 334 1.6 3.2 0.00 0.00 0.00 99 1017.9
20260507042042 7 263 1.6 4.8 0.00 0.00 0.00 99 1018.0
20260507041035 7 284 1.6 4.8 0.00 0.00 0.00 99 1018.0
20260507040028 7 250 1.6 4.8 0.00 0.00 0.00 99 1017.8
20260507035019 7 339 0.0 1.6 0.00 0.00 0.00 99 1017.5
20260507034105 7 98 1.6 3.2 0.00 0.00 0.00 99 1017.4
20260507033034 7 0.0 0.0 0.00 0.00 0.00 99 1017.5
20260507032027 7 3 0.0 1.6 0.00 0.00 0.00 99 1017.5
20260507031019 7 321 0.0 3.2 0.00 0.00 0.00 99 1017.5
20260507025034 7 346 3.2 4.8 0.00 0.00 0.00 99 1017.4
20260507024032 7 356 1.6 1.6 0.00 0.00 0.00 99 1017.2
20260507023035 7 293 1.6 4.8 0.00 0.00 0.00 99 1017.2
20260507022026 7 311 1.6 4.8 0.00 0.00 0.00 99 1017.3
20260507021018 7 244 1.6 4.8 0.00 0.00 0.00 99 1017.3
20260507020043 7 285 3.2 4.8 0.00 0.00 0.00 99 1017.1
20260507015035 7 327 1.6 3.2 0.00 0.00 0.00 99 1017.2
20260507014046 7 0.0 0.0 0.00 0.00 0.00 99 1017.0
20260507013018 7 247 1.6 4.8 0.00 0.00 0.00 99 1016.8
20260507012043 7 124 1.6 4.8 0.00 0.00 0.00 99 1016.8
20260507011019 7 111 1.6 3.2 0.00 0.00 0.00 99 1016.7
20260507010029 8 110 1.6 3.2 0.00 0.00 0.00 99 1016.9
20260507005055 7 59 0.0 1.6 0.00 0.00 0.00 99 1016.9
20260507004100 7 0.0 0.0 0.00 0.00 0.00 99 1016.9
20260507003051 8 14 0.0 1.6 0.00 0.00 0.00 99 1016.8
20260507002043 8 188 0.0 1.6 0.00 0.00 0.00 99 1016.8
20260507001018 8 235 1.6 4.8 0.00 0.00 0.00 99 1016.8
20260507000043 8 338 1.6 3.2 0.00 0.00 0.00 98 1016.8
20260506235035 8 3 1.6 3.2 0.00 0.00 0.00 98 1016.6
20260506234027 9 331 1.6 3.2 0.00 0.00 0.00 97 1016.9
20260506233019 9 66 1.6 3.2 0.00 0.00 0.00 96 1016.8
20260506232042 9 132 3.2 4.8 0.00 0.00 0.00 94 1016.8
20260506231018 10 104 1.6 4.8 0.00 0.00 0.00 93 1016.9
20260506230043 10 0.0 0.0 0.00 0.00 0.00 92 1016.8
20260506225019 10 66 0.0 1.6 0.00 0.00 0.00 92 1016.9
20260506224027 10 116 1.6 3.2 0.00 0.00 0.00 95 1016.9
20260506223035 10 63 1.6 1.6 0.00 0.00 0.00 97 1017.1
20260506222043 10 51 1.6 4.8 0.00 0.00 0.00 97 1017.1
20260506221037 10 38 1.6 3.2 0.00 0.00 0.00 96 1017.2
20260506220043 11 48 3.2 9.7 0.00 0.00 0.00 97 1017.3
20260506215035 11 43 1.6 4.8 0.00 0.00 0.00 97 1017.4
20260506214100 11 48 3.2 8.0 0.00 0.00 0.00 97 1017.2
20260506213021 11 54 1.6 4.8 0.00 0.00 0.00 97 1017.3
20260506212043 11 51 3.2 8.0 0.00 0.00 0.00 96 1017.1
20260506211035 11 59 3.2 8.0 0.00 0.00 0.00 96 1017.1
20260506210033 11 35 3.2 9.7 0.00 0.00 0.00 96 1017.1
20260506205051 11 55 3.2 8.0 0.00 0.00 0.00 96 1017.2
20260506204106 11 49 3.2 9.7 0.00 0.00 0.00 96 1016.9
20260506203019 11 37 1.6 4.8 0.00 0.00 0.00 95 1016.9
20260506202027 11 56 3.2 9.7 0.00 0.00 0.00 95 1017.1
20260506201019 11 49 3.2 8.0 0.00 0.00 0.00 94 1017.1
20260506200027 11 44 1.6 4.8 0.00 0.00 0.00 94 1017.0
20260506195019 11 41 1.6 8.0 0.00 0.00 0.00 94 1017.1
20260506194028 11 55 3.2 8.0 0.00 0.00 0.00 94 1017.0
20260506193059 11 30 1.6 3.2 0.00 0.00 0.00 94 1016.9
20260506192028 11 62 1.6 8.0 0.00 0.00 0.00 93 1017.0
20260506191035 11 38 3.2 4.8 0.00 0.00 0.00 94 1016.8
20260506190043 11 27 3.2 8.0 0.00 0.00 0.00 94 1016.9
20260506185035 11 61 3.2 8.0 0.00 0.00 0.00 94 1016.7
20260506184032 11 47 4.8 11.3 0.00 0.00 0.00 95 1016.7
20260506181526 11 41 3.2 8.0 0.00 0.00 0.00 94 1016.5
20260506180547 12 51 3.2 8.0 0.00 0.00 0.00 94 1016.5
20260506175536 12 50 3.2 8.0 0.00 0.00 0.00 93 1016.3
20260506174533 12 46 4.8 9.7 0.00 0.00 0.00 93 1016.2
20260506173539 12 44 4.8 9.7 0.00 0.00 0.00 92 1016.1
20260506172551 12 65 3.2 11.3 0.00 0.00 0.00 92 1016.3
20260506171540 12 34 4.8 11.3 0.00 0.00 0.00 92 1016.1
20260506170607 12 52 4.8 11.3 0.00 0.00 0.00 92 1016.0
20260506165559 12 71 4.8 11.3 0.00 0.00 0.00 90 1016.0
20260506164531 13 58 4.8 11.3 0.00 0.00 0.00 89 1015.9
20260506163540 13 40 4.8 12.9 0.00 0.00 0.00 87 1015.9
20260506162531 13 38 4.8 9.7 0.00 0.00 0.00 85 1016.0
20260506161543 13 49 6.4 16.1 0.00 0.00 0.00 83 1015.9
20260506160624 14 62 3.2 8.0 0.00 0.00 0.00 83 1015.9
20260506155524 14 41 4.8 11.3 0.00 0.00 0.00 83 1015.8
20260506154554 14 47 4.8 11.3 0.00 0.00 0.00 81 1015.9
20260506153523 15 49 4.8 12.9 0.00 0.00 0.00 79 1016.0
20260506152532 15 22 6.4 14.5 0.00 0.00 0.00 78 1015.9